Tracking 29892 objects as of 21-Nov-2024
HD Live streaming from Space Station
objects crossing your sky now

COSMOS 2354

Track COSMOS 2354 now!
10-day predictions
COSMOS 2354 is classified as:


NORAD ID: 25365
Int'l Code: 1998-036C
Perigee: 1,314.4 km
Apogee: 1,877.4 km
Inclination: 82.6 °
Period: 117.9 minutes
Semi major axis: 7966 km
RCS: 0.9905 m2 (medium)
Launch date: June 15, 1998
Source: Commonwealth of Independent States (former USSR) (CIS)
Launch site: PLESETSK MISSILE AND SPACE COMPLEX (PKMTR)

Satellites have a single simultaneous earth-space and space-earth channel.
Your satellite tracking list
Your tracking list is empty




NASA's NSSDC Master Catalog

Two Line Element Set (TLE):
1 25365U 98036C   24325.51322272  .00000006  00000-0 -24616-4 0  9997
2 25365  82.5817 326.6059 0353296   2.7647 168.3166 12.20866126178066
Source of the keplerian elements: AFSPC